Regional Weather Roundup
Issued by NWS Albany, NY

Home | Current Version | Previous Version | Text Only | Print | Product List | Glossary On
Versions: 1 2 3 4 5 6 7 8 9 10 11 12 13 14 15 16 17 18 19 20 21 22 23 24 25 26 27 28 29 30 31 32 33 34 35 36 37 38 39 40 41 42 43 44 45 46 47 48 49 50
000
ASUS41 KALY 301310
RWRALY

NEW YORK STATE HOURLY WEATHER ROUNDUP
NATIONAL WEATHER SERVICE ALBANY NY
900 AM EDT SAT AUG 30 2014

NOTE: "FAIR" INDICATES FEW OR NO CLOUDS BELOW 12,000 FEET WITH NO
SIGNIFICANT WEATHER AND/OR NO OBSTRUCTIONS TO VISIBILITY.

NYZ032-033-038>043-046>054-057>066-NYZ062>081-301400-
EAST


CITY           SKY/WX    TMP DP  RH WIND       PRES   REMARKS
ALBANY         MOSUNNY   65  56  72 S7        30.24F
GLENS FALLS    SUNNY     63  56  78 S9        30.23F
POUGHKEEPSIE   SUNNY     67  58  72 CALM      30.27S
NEWBURGH       SUNNY     66  59  77 VRB5      30.29S
MONTGOMERY     SUNNY     64  56  75 CALM      30.28S
WHITE PLAINS   MOSUNNY   69  57  65 CALM      30.27F
ISLIP          MOSUNNY   72  60  66 SE13      30.26S
NEW YORK CITY  MOSUNNY   72  56  57 S8        30.26F
CENTRAL PARK   MOSUNNY   71  55  56 CALM      30.30S
$$

NYZ005>009-017-018-044>046-055-056-301400-
CENTRAL


CITY           SKY/WX    TMP DP  RH WIND       PRES   REMARKS
FULTON         SUNNY     66  57  72 VRB7      30.13S
SYRACUSE       MOSUNNY   69  57  65 S9        30.14S
ROME           SUNNY     65  58  78 SE7       30.19F
ELMIRA         SUNNY     66  58  75 CALM      30.17F
BINGHAMTON     MOSUNNY   62  57  83 S12G17    30.21F
MONTICELLO     SUNNY     61  55  82 MISG      30.30S
$$

NYZ026>034-041>043-301400-
NORTH


CITY           SKY/WX    TMP DP  RH WIND       PRES   REMARKS
WATERTOWN      SUNNY     68  54  60 VRB7      30.10F
FORT DRUM      NOT AVBL
MASSENA        MOSUNNY   68  57  68 S12       30.10F
SARANAC LAKE   MOSUNNY   63  52  67 SW12      30.16R
PLATTSBURGH    MOSUNNY   65  58  78 S9        30.15F
$$

NYZ001>004-010>016-019>021-301400-
WEST


CITY           SKY/WX    TMP DP  RH WIND       PRES   REMARKS
NIAGARA FALLS  PTSUNNY   70  59  68 S14       30.05F
BUFFALO        PTSUNNY   70  57  63 S7        30.07S
DUNKIRK        MOSUNNY   74  57  55 S20G25    30.06F
JAMESTOWN      SUNNY     61  57  88 S8        30.14S
WELLSVILLE     SUNNY     65  55  70 S8        30.19S
ROCHESTER      MOSUNNY   67  57  70 SW12      30.10S
PENN YAN       SUNNY     66  55  67 S18G25    30.14F
$$

             KEY
       WCI = WIND CHILL INDEX
       VSB = VISIBILITY
       HX  = HEAT INDEX
$$


USA.gov is the U.S. government's official web portal to all federal, state and local government web resources and services.